Regional Weather Roundup
Issued by NWS Kansas City/Pleasant Hill, MO

Home | Current Version | Previous Version | Graphics & Text | Print | Product List | Glossary Off
Versions: 1 2 3 4 5 6 7 8 9 10 11 12 13 14 15 16 17 18 19 20 21 22 23 24 25 26 27 28 29 30 31 32 33 34 35 36 37 38 39 40 41 42 43 44 45 46 47 48 49 50

000
ASUS43 KEAX 181610
RWREAX

WEATHER ROUNDUP FOR EASTERN KANSAS AND NORTHWEST MISSOURI
NATIONAL WEATHER SERVICE KANSAS CITY/PLEASANT HILL MO
1000 AM CST THU DEC 18 2014

KSZ040-057-103>105-MOZ028-029-037-043-181700-
...KANSAS CITY METROPOLITAN AREA...

CITY           SKY/WX    TMP DP  RH WIND       PRES   REMARKS
K.C. INTL      LGT SNOW  29  27  92 E6        30.24R FOG     WCI  23
K.C. DOWNTOWN  LGT SNOW  31  28  89 NE7       30.25R VSB 1   WCI  24
LEES SUMMIT    LGT SNOW  30  28  92 E7        30.24R FOG     WCI  23
OLATHE - IXD   LGT SNOW  31  28  89 E5        30.23R FOG     WCI  26
OLATHE - OJC   CLOUDY    31  28  89 E7        30.22R FOG     WCI  24
LAWRENCE       CLOUDY    30  27  88 E7        30.24S FOG     WCI  23

$$

MOZ001>008-011>017-020>025-030>033-038>040-044>046-053-054-181700-
...NORTHERN AND CENTRAL MISSOURI...

CITY           SKY/WX    TMP DP  RH WIND       PRES   REMARKS
ST. JOSEPH     LGT SNOW  29  26  89 E6        30.27R FOG     WCI  23
MOSBY          LGT SNOW  30  28  93 E5        30.26R WCI  25
WARRENSBURG    LGT SNOW  32  30  93 NE6       30.25R WCI  26
WHITEMAN AFB   LGT SNOW  31  29  92 E5        30.24R FOG     WCI  27
CLINTON        LGT SNOW  34  32  93 E6        30.24R WCI  29
SEDALIA        LGT SNOW  32  30  92 E7        30.25R VSB 1   WCI  26
WARSAW         NOT AVBL
MARSHALL       LGT SNOW  32  30  93 E7        30.26  WCI  26
CHILLICOTHE      N/A     28  24  85 E6        30.28S WCI  22
MOBERLY        LGT SNOW  28  25  86 E9        30.28  WCI  20
KIRKSVILLE     LGT SNOW  26  24  92 E6        30.29R FOG     WCI  19

$$

MOZ041-047>049-056>058-063>065-088>090-097-181700-
...EASTERN AND SOUTHERN MISSOURI...

CITY           SKY/WX    TMP DP  RH WIND       PRES   REMARKS
ST. LOUIS INTL LGT SNOW  30  25  80 NE5       30.32S WCI  25
SPIRIT OF STL  LGT SNOW  30  28  92 NE8       30.31R VSB 3/4 WCI  22
COLUMBIA       LGT SNOW  30  28  92 E9        30.26R FOG     WCI  22
JEFFERSON CITY LGT SNOW  31  28  89 E8        30.28R FOG     WCI  23
HANNIBAL       LGT SNOW  30  25  80 E3        30.30R
ROLLA          LGT SNOW  31  29  92 E7        30.23R VSB 3/4 WCI  24
LEBANON        CLOUDY    34  32  93 SE6       30.21S WCI  29
OSAGE BEACH    CLOUDY    32  28  86 E5        30.24R WCI  27
SPRINGFIELD    CLOUDY    34  33  96 S8        30.19R WCI  27
BRANSON        CLOUDY    36  32  87 CALM      30.21R FOG
NEVADA         DRIZZLE   32  32 100 CALM      30.24R
JOPLIN         CLOUDY    37  36  96 CALM      30.21R FOG
WEST PLAINS    CLOUDY    34  32  92 SE3       30.23S FOG

$$

IAZ060-094-KSZ022-034>040-054-083-096-NEZ052-066-093-181700-
...KANSAS...SOUTHEAST NEBRASKA AND IOWA...

CITY           SKY/WX    TMP DP  RH WIND       PRES   REMARKS
TOPEKA         CLOUDY    32  28  85 N5        30.25R WCI  27
MANHATTAN      CLOUDY    29  27  92 NE3       30.24R
EMPORIA        CLOUDY    29  28  96 NE3       30.21R FOG
CHANUTE        CLOUDY    32  32 100 E3        30.21R FOG
WICHITA        FOG       32  30  92 N3        30.20R VSB 1/2
OMAHA          LGT SNOW  27  24  89 SE6       30.27R FOG     WCI  20
LINCOLN        CLOUDY    28  25  88 S6        30.26R FOG     WCI  22
FALLS CITY     LGT SNOW  28  25  88 E5        30.26R FOG     WCI  23
LAMONI         LGT SNOW  26  23  88 E7        30.26R FOG     WCI  18
DES MOINES     CLOUDY    24  17  74 VRB3      30.29S

$$



USA.gov is the U.S. government's official web portal to all federal, state and local government web resources and services.